Date String (YYYY-MM-DD hh:mm:ss) UTC,Instrument flags,Ambient pressure (hPa),Sample flow (lpm),Bypass flow (lpm),Sample temperature (°C),Ambient temperature (°C),ASC tube jacket temperature (°C),LED temperature (°C),Box temperature (°C),Sample RH (%),Span deviation,Mass concentration (μg/m³),Mass concentration (μg/m³),Mass concentration (μg/m³)
DateTimeUTC,F1_M11,P_M11,Q1_M11,Q2_M11,T1_M11,T2_M11,T3_M11,T4_M11,T5_M11,U1_M11,ZSPAN_M11,X0_M11,X2_M11,X1_M11
2022-04-03 06:00:00,,0821.8,5.00,0.00,29.7,28.8,00.0,38.7,31.4,08.8,0000.0,0013.48,0004.84,0003.37
2022-04-03 06:01:00,,0821.8,4.99,0.00,29.7,28.8,00.0,38.7,31.4,08.8,0000.0,0012.66,0004.84,0003.36
2022-04-03 06:02:00,,0821.8,5.01,0.00,29.7,28.8,00.0,38.7,31.4,08.8,0000.0,0012.71,0004.88,0003.36
2022-04-03 06:03:00,,0821.8,5.01,0.00,29.7,28.8,00.0,38.7,31.4,08.7,0000.0,0013.18,0004.90,0003.38
2022-04-03 06:04:00,,0821.7,4.99,0.00,29.7,28.8,00.0,38.7,31.4,08.7,0000.0,0013.06,0004.92,0003.41
2022-04-03 06:05:00,,0821.8,4.99,0.00,29.7,28.8,00.0,38.7,31.4,08.7,0000.0,0012.88,0004.92,0003.43
2022-04-03 06:06:00,,0821.8,5.01,0.00,29.7,28.8,00.0,38.7,31.4,08.7,0000.0,0012.83,0004.94,0003.44
2022-04-03 06:07:00,,0821.8,5.01,0.00,29.7,28.8,00.0,38.7,31.4,08.7,0000.0,0012.42,0004.91,0003.46
2022-04-03 06:08:00,,0821.8,5.01,0.00,29.7,28.8,00.0,38.7,31.4,08.7,0000.0,0013.34,0004.92,0003.49
2022-04-03 06:09:00,,0821.8,5.01,0.00,29.7,28.8,00.0,38.7,31.4,08.6,0000.0,0012.99,0004.94,0003.51
2022-04-03 06:10:00,,0821.8,5.00,0.00,29.7,28.8,00.0,38.7,31.4,08.6,0000.0,0013.24,0005.06,0003.55
2022-04-03 06:11:00,,0821.8,4.99,0.00,29.7,28.8,00.0,38.7,31.5,08.6,0000.0,0013.11,0005.05,0003.59
2022-04-03 06:12:00,,0821.8,4.99,0.00,29.7,28.8,00.0,38.7,31.4,08.6,0000.0,0013.45,0005.08,0003.63
2022-04-03 06:13:00,,0821.8,5.01,0.00,29.8,28.8,00.0,38.7,31.4,08.6,0000.0,0012.70,0005.10,0003.67
2022-04-03 06:14:00,,0821.8,4.99,0.00,29.7,28.8,00.0,38.7,31.4,08.9,0000.0,0012.39,0005.15,0003.70
2022-04-03 06:15:00,,0821.8,5.00,0.00,29.7,28.8,00.0,38.7,31.4,08.9,0000.0,0012.70,0005.18,0003.68
2022-04-03 06:16:00,,0821.9,5.00,0.00,29.7,28.8,00.0,38.7,31.4,08.8,0000.0,0012.69,0005.15,0003.68
2022-04-03 06:17:00,,0821.8,4.99,0.00,29.7,28.8,00.0,38.7,31.4,08.9,0000.0,0013.31,0005.18,0003.69
2022-04-03 06:18:00,,0821.9,4.99,0.00,29.7,28.8,00.0,38.7,31.4,08.8,0000.0,0013.75,0005.23,0003.70
2022-04-03 06:19:00,,0821.9,5.01,0.00,29.7,28.8,00.0,38.7,31.4,08.7,0000.0,0013.17,0005.29,0003.72
2022-04-03 06:20:00,,0821.8,5.00,0.00,29.7,28.8,00.0,38.7,31.4,08.7,0000.0,0013.26,0005.33,0003.75
2022-04-03 06:21:00,,0821.8,4.99,0.00,29.7,28.8,00.0,38.7,31.4,08.7,0000.0,0013.07,0005.29,0003.78
2022-04-03 06:22:00,,0821.7,5.00,0.00,29.7,28.8,00.0,38.7,31.4,08.7,0000.0,0013.44,0005.35,0003.82
2022-04-03 06:23:00,,0821.7,5.00,0.00,29.7,28.7,00.0,38.7,31.4,08.7,0000.0,0013.77,0005.40,0003.88
2022-04-03 06:24:00,,0821.6,5.00,0.00,29.7,28.7,00.0,38.7,31.4,08.7,0000.0,0013.65,0005.43,0003.94
2022-04-03 06:25:00,,0821.7,4.99,0.00,29.7,28.7,00.0,38.7,31.4,08.7,0000.0,0014.02,0005.46,0004.00
2022-04-03 06:26:00,,0821.8,4.99,0.00,29.7,28.7,00.0,38.7,31.4,08.8,0000.0,0013.88,0005.55,0004.07
2022-04-03 06:27:00,,0821.8,5.02,0.00,29.7,28.7,00.0,38.7,31.4,08.8,-000.3,0014.03,0005.65,0004.12
2022-04-03 06:28:00,,0821.8,5.00,0.00,29.7,28.7,00.0,38.7,31.4,09.1,-002.3,0013.55,0005.71,0004.16
2022-04-03 06:29:00,,0821.9,4.99,0.00,29.7,28.7,00.0,38.7,31.3,08.9,-002.6,0013.46,0005.77,0004.20
2022-04-03 06:30:00,,0821.8,5.00,0.00,29.7,28.7,00.0,38.7,31.3,08.9,-001.9,0013.09,0005.75,0004.20
2022-04-03 06:31:00,,0821.8,5.01,0.00,29.6,28.6,00.0,38.6,31.3,08.8,-002.6,0012.99,0005.82,0004.24
2022-04-03 06:32:00,,0821.7,5.00,0.00,29.6,28.6,00.0,38.6,31.3,08.7,-002.1,0013.06,0005.92,0004.33
2022-04-03 06:33:00,,0821.6,4.99,0.00,29.6,28.6,00.0,38.6,31.3,08.7,-001.8,0012.89,0006.03,0004.42
2022-04-03 06:34:00,,0821.7,5.00,0.00,29.6,28.6,00.0,38.6,31.3,08.7,-001.9,0012.87,0006.10,0004.48
2022-04-03 06:35:00,,0821.7,5.00,0.00,29.6,28.6,00.0,38.6,31.3,08.7,-002.8,0014.15,0006.18,0004.51
2022-04-03 06:36:00,,0821.7,5.01,0.00,29.6,28.6,00.0,38.6,31.3,08.7,0004.6,0013.85,0006.17,0004.52
2022-04-03 06:37:00,,0821.7,4.99,0.00,29.6,28.7,00.0,38.6,31.3,08.7,-000.2,0013.76,0006.17,0004.56
2022-04-03 06:38:00,,0821.7,5.01,0.00,29.6,28.7,00.0,38.6,31.3,08.7,0000.0,0014.36,0006.23,0004.61
2022-04-03 06:39:00,,0821.7,4.99,0.00,29.6,28.7,00.0,38.6,31.3,08.7,0000.0,0014.64,0006.26,0004.64
2022-04-03 06:40:00,,0821.6,5.00,0.00,29.6,28.7,00.0,38.6,31.3,08.7,0000.0,0014.58,0006.25,0004.67
2022-04-03 06:41:00,,0821.6,4.99,0.00,29.6,28.7,00.0,38.6,31.3,08.7,0000.0,0015.03,0006.31,0004.69
2022-04-03 06:42:00,,0821.7,4.99,0.00,29.6,28.7,00.0,38.6,31.3,08.7,0000.0,0015.22,0006.28,0004.67
2022-04-03 06:43:00,,0821.7,5.00,0.00,29.6,28.7,00.0,38.6,31.3,08.7,0000.0,0015.64,0006.28,0004.61
2022-04-03 06:44:00,,0821.6,5.01,0.00,29.6,28.6,00.0,38.6,31.3,08.7,0000.0,0015.50,0006.14,0004.54
2022-04-03 06:45:00,,0821.7,5.01,0.00,29.6,28.6,00.0,38.6,31.3,08.7,0000.0,0014.89,0006.00,0004.47
2022-04-03 06:46:00,,0821.8,4.99,0.00,29.6,28.6,00.0,38.6,31.3,08.7,0000.0,0013.64,0005.91,0004.42
2022-04-03 06:47:00,,0821.8,4.99,0.00,29.6,28.6,00.0,38.6,31.3,08.7,0000.7,0013.47,0005.90,0004.40
2022-04-03 06:48:00,,0821.7,5.00,0.00,29.6,28.6,00.0,38.6,31.3,08.7,0000.2,0013.58,0005.86,0004.35
2022-04-03 06:49:00,,0821.6,5.00,0.00,29.6,28.6,00.0,38.6,31.3,08.7,0000.0,0012.97,0005.70,0004.25
2022-04-03 06:50:00,,0821.7,5.00,0.00,29.6,28.6,00.0,38.6,31.3,08.7,0000.0,0012.74,0005.56,0004.15
2022-04-03 06:51:00,,0821.7,5.00,0.00,29.6,28.6,00.0,38.6,31.3,08.7,0000.7,0012.67,0005.51,0004.09
2022-04-03 06:52:00,,0821.7,5.01,0.00,29.6,28.6,00.0,38.6,31.3,08.7,0001.4,0012.69,0005.50,0004.10
2022-04-03 06:53:00,,0821.7,5.00,0.00,29.6,28.6,00.0,38.6,31.3,08.8,0001.0,0013.46,0005.50,0004.13
2022-04-03 06:54:00,,0821.7,4.99,0.00,29.6,28.6,00.0,38.6,31.3,08.7,-000.5,0013.83,0005.47,0004.12
2022-04-03 06:55:00,,0821.7,4.99,0.00,29.6,28.6,00.0,38.6,31.3,08.7,0000.0,0013.84,0005.50,0004.11
2022-04-03 06:56:00,,0821.7,5.02,0.00,29.6,28.6,00.0,38.6,31.3,08.7,0000.0,0014.19,0005.57,0004.08
2022-04-03 06:57:00,,0821.8,4.99,0.00,29.6,28.6,00.0,38.6,31.3,08.7,0000.0,0014.69,0005.54,0004.04
2022-04-03 06:58:00,,0821.8,4.99,0.00,29.6,28.6,00.0,38.6,31.3,08.8,0000.0,0014.87,0005.52,0004.01
2022-04-03 06:59:00,,0821.9,5.01,0.00,29.6,28.6,00.0,38.6,31.3,08.8,0000.0,0014.80,0005.53,0004.02
